Regional Weather Roundup
Issued by NWS

Home | Current Version | Previous Version | Text Only | Print | Product List | Glossary Off
Versions: 1 2 3 4 5 6 7 8 9 10 11 12 13 14 15 16 17 18 19 20 21 22 23 24 25 26 27 28 29 30 31 32 33 34 35 36 37 38 39 40 41 42 43 44 45 46 47 48 49 50

000
ASUS43 KMKX 242200
RWRWI

WISCONSIN REGIONAL WEATHER ROUNDUP
NATIONAL WEATHER SERVICE MILWAUKEE/SULLIVAN WI
500 PM CDT MON APR 24 2017

NOTE: "FAIR" INDICATES FEW OR NO CLOUDS BELOW 12,000 FEET WITH NO
SIGNIFICANT WEATHER AND/OR OBSTRUCTIONS TO VISIBILITY.

WIZ001-002-006>008-014>016-023>028-242300-
NORTHWEST WISCONSIN

CITY           SKY/WX    TMP DP  RH WIND       PRES   REMARKS
SUPERIOR ARPT  CLOUDY    38  34  85 E25G32    29.71F WCI  27
ASHLAND        CLOUDY    41  33  73 NE16      29.72F
HAYWARD        CLOUDY    66  30  26 S15G25    29.67F
SIREN          CLOUDY    67  29  24 S12G24    29.64F
CUMBERLAND     CLOUDY    63  32  31 SE12      29.66F
RICE LAKE      CLOUDY    66  32  27 SE16G25   29.68F
CHETEK         CLOUDY    65  35  31 S15G23    29.67F
LADYSMITH      CLOUDY    66  33  29 S9G16     29.71F
EAU CLAIRE     NOT AVBL
MENOMONIE      CLOUDY    70  31  23 SE16      29.66F
NEW RICHMOND   CLOUDY    67  29  24 S18G24    29.64S
OSCEOLA        CLOUDY    67  30  25 S14G21    29.65F
$$

WIZ003>005-009-010-017-018-242300-
NORTH CENTRAL WISCONSIN

CITY           SKY/WX    TMP DP  RH WIND       PRES   REMARKS
MANITOWISH WTR CLOUDY    65  28  25 S21G26    29.73F
ARBOR VITAE    CLOUDY    65  26  23 S14G24    29.74F
WOODRUFF       CLOUDY    65  26  23 S14G24    29.74F
RHINELANDER    CLOUDY    65  33  30 SE17G24   29.77F
EAGLE RIVER    MOSUNNY   64  25  23 S9G23     29.77F
LAND O LAKES   CLOUDY    66  25  21 S14G26    29.78F
PHILLIPS       CLOUDY    64  32  30 S12G26    29.72F
TOMAHAWK       CLOUDY    64  33  31 SE6       29.76F
MEDFORD        CLOUDY    62  32  32 SE15G24   29.73F
MERRILL        CLOUDY    65  35  33 SE12G17   29.77F
$$

WIZ029-030-035-036-043>047-242300-
CENTRAL WISCONSIN

CITY           SKY/WX    TMP DP  RH WIND       PRES   REMARKS
WAUSAU         MOSUNNY   66  33  29 SE17G25   29.74F
MOSINEE        PTSUNNY   66  32  28 SE14G24   29.76F
MARSHFIELD     CLOUDY    66  32  28 S17G26    29.71F
STEVENS POINT  CLOUDY    66  30  25 S10G18    29.78F
WAUPACA        MOSUNNY   72  26  18 S13       29.79F
WAUTOMA        MOSUNNY   71  32  23 S14G24    29.77F
WISC RAPIDS    NOT AVBL
CAMP DOUGLAS   NOT AVBL
$$

WIZ011>013-019>022-031-037>040-048>050-242300-
NORTHEAST WISCONSIN

CITY           SKY/WX    TMP DP  RH WIND       PRES   REMARKS
ANTIGO         CLOUDY    61  39  44 SE17      29.80F
SHAWANO        CLOUDY    66  42  40 SE12G17   29.82F
OCONTO         MOSUNNY   54  41  62 E7        29.86F
STURGEON BAY   CLOUDY    50  38  63 E9        29.88F
GREEN BAY      CLOUDY    67  39  35 SE16      29.83F
MANITOWOC      NOT AVBL
APPLETON       PTSUNNY   66  28  24 SE12G20   29.80F
CLINTONVILLE   MOSUNNY   68  32  26 S13       29.81F
OSHKOSH        CLOUDY    70  42  36 SE17G24   29.80F
$$

WIZ032>034-041-042-053>061-242300-
SOUTHWEST WISCONSIN

CITY           SKY/WX    TMP DP  RH WIND       PRES   REMARKS
LA CROSSE      CLOUDY    73  31  21 SE18G25   29.67F
SPARTA         CLOUDY    72  27  19 S20G28    29.71F
VIROQUA        CLOUDY    69  28  22 SE16G26   29.73F
BOSCOBEL       MOSUNNY   73  28  18 SE7       29.72F
PRAIRIE DU CHI CLOUDY    73  23  15 SE12G24   29.71F
PLATTEVILLE    MOSUNNY   73  28  19 S16       29.75F
$$

WIZ056-057-062-063-064-067-068-242300-
SOUTH CENTRAL WISCONSIN

CITY           SKY/WX    TMP DP  RH WIND       PRES   REMARKS
REEDSBURG      CLOUDY    71  33  24 S12       29.75F
BARABOO/DELLS  CLOUDY    70  28  20 S13       29.76F
LONE ROCK      NOT AVBL
MINERAL POINT  MOSUNNY   72  21  15 SE21      29.75F
MADISON        PTSUNNY   70  28  21 SE15      29.77F
MIDDLETON      MOSUNNY   73  26  17 SE14      29.79F
WATERTOWN      CLOUDY    69  36  28 SE14      29.81F
MONROE         MOSUNNY   72  27  18 S14G23    29.78F
JANESVILLE     PTSUNNY   73  23  15 S13G23    29.79F
$$

WIZ051-052-058>065-066-070>072-242300-
SOUTHEAST WISCONSIN

CITY           SKY/WX    TMP DP  RH WIND       PRES   REMARKS
MILWAUKEE      CLOUDY    64  33  31 SE12      29.86F
WAUKESHA       NOT AVBL
MILWAUKEE/TIMM SUNNY     66  14  13 SE17      29.86F
RACINE         MOSUNNY   60  33  36 E8        29.87F
KENOSHA        MOSUNNY   65  31  28 SE13      29.85F
FOND DU LAC    CLOUDY    68  35  29 SE17      29.81F
SHEBOYGAN      CLOUDY    62  33  33 S14       29.86F
WEST BEND      CLOUDY    64  28  25 SE13G22   29.85F
JUNEAU         CLOUDY    67  36  31 SE14      29.82F
$$

LSZ147-162-242300-
LAKE SUPERIOR

STATION/POSITION TIME  TEMP    WIND        PRES    WAVE
                       AIR SEA DIR/SP/G            HT/PER
                 (UTC) (F)     (DEG/KT/KT) (MB)    (FT/S)
DEVILS ISLAND    2100   36      50/ 30/ 35 1008.6F
SAXON HARBOR     2130   40     310/  5/  7 1006.1F
$$

LMZ867-665-643>646-242300-
LAKE MICHIGAN

STATION/POSITION TIME  TEMP    WIND        PRES    WAVE
                       AIR SEA DIR/SP/G            HT/PER
                 (UTC) (F)     (DEG/KT/KT) (MB)    (FT/S)
CHAMBERS ISLAND  2140   47      60/  7/  8 1011.5F
N MID LAKE BUOY  2050   40 37   80/ 10/ 12 1014.6F   1/ 3
NORTHPORT PIER   2140   40      80/  7/ 11 1012.5F
SISTER BAY       2106   51     120/ 12/ 15   N/A
KEWAUNEE LAKESHO 2130   43      70/  4/  6 1011.7F
SHEBOYGAN LAKESH 2100   45     160/  9/ 10 1012.3F
PORT WASHINGTON  2130   49     130/  2/  3 1012.5F
MILWAUKEE LAKESH 2130   46      50/  2/  3   N/A
S MID LAKE BUOY  2050   48 43   20/  6/  6 1012.7F   1/ 5
KENOSHA   LAKESH 2100   49      60/  2/  4 1011.9
$$

TC  - TEMPERATURE IN CELSIUS
VSB - VISIBILITY IN STATUTE MILES
WCI - WIND CHILL INDEX
HX  - HEAT INDEX





USA.gov is the U.S. government's official web portal to all federal, state and local government web resources and services.